{"data":{"norad_id":66136,"intl_designator":"2025-237Y","name":"STARLINK-35592","alt_names":[],"object_type":"PAYLOAD","status":"ACTIVE","operator":null,"country":"US","launch_date":"2025-10-22","launch_site_code":"AFWTR","launch_vehicle":null,"mission":null,"orbit_class":"UNKNOWN","rcs_meters":null,"size_class":null,"mass_kg":null,"dimensions":null,"purposes":["comms"],"wikipedia_slug":null,"has_3d_model":false,"image_url":null,"decayed_at":null,"tle_current":{"epoch":"2026-05-25T02:44:27.108096Z","epoch_age_seconds":55366,"freshness":"FRESH","line1":"1 66136U 25237Y   26145.11420264  .00008635  00000+0  30330-3 0  9992","line2":"2 66136  53.1612  44.4779 0001446  93.7997 266.3169 15.30203609 34319","mean_motion":15.30203609,"eccentricity":0.0001446,"inclination_deg":53.1612,"raan_deg":44.4779,"arg_perigee_deg":93.7997,"mean_anomaly_deg":266.3169,"bstar":0.0003033,"rev_number":3431,"period_min":94.105123758076,"perigee_km":474.21330046597,"apogee_km":476.19528676809,"semimajor_km":6853.341293617,"source":"CELESTRAK","updated_at":"2026-05-25T13:38:21.066726Z"}}}